Weather in Hyderabad

Pakistan     25°24′41″N   68°20′34″E
temp.,
°C
wind,
m/s
gust,
m/s
humid.,
%
clouds,
%
prec.,
mm/h
press.,
hPa
HPBL,
m
22 january, fri
fri2223:00+19wsw713760 0.0 1012220
02:00+18sw814860 0.0 1011274
05:00+18sw713890 0.0 1010248
08:00+18wsw610870 0.0 1011196
11:00+27wsw79370 0.0 1012532
14:00+32w77170 0.0 10091399
17:00+30wsw68200 0.0 1008785
20:00+22wsw610500 0.0 1009169
23 january, sat
sat2323:00+22wnw56310 0.0 101078
02:00+20nnw79200 0.0 1010130
05:00+16n45250 0.0 101048
08:00+16n44180 0.0 101357
11:00+22n55110 0.0 1014647
14:00+25n4470 0.0 10121143
17:00+25nnw3440 0.0 1010253
20:00+17nne3560 0.0 101223
24 january, sun
sun2423:00+13nne2350 0.0 101323
02:00+11nne2350 0.0 101223
05:00+12nne4550 0.0 101327
08:00+11n5670 0.0 101683
11:00+20nne6860 0.0 1017484
14:00+25nne6740 0.0 10151143
17:00+24nne4640 0.0 1014167
20:00+16nne45110 0.0 101630
25 january, mon
mon2523:00+15n45130 0.0 101725
02:00+13n56140 0.0 101664
05:00+11n56120 0.0 101676
08:00+11n57130 0.0 101894
11:00+19nne55100 0.0 1019456
14:00+24ne3470 0.0 10161270
17:00+24n2370 0.0 101588
20:00+16n35110 0.0 101623
26 january, tue
tue2623:00+12n231511 0.0 101723
02:00+12nnw231626 0.0 101623
05:00+11ne231626 0.0 101523
08:00+11ne22150 0.0 101723
11:00+21ene2280 0.0 1017447
14:00+24sse11624 0.0 10141288
17:00+24sw11614 0.0 101323
20:00+14ssw111110 0.0 101523